FW9465 Weather Reports


Display with metric or nautical units.
time (UTC)temp
F
wind
direction
speed
MPH
gust
MPH
rain 1hr
in
rain 24hr
in
rain mn
in
humidity
%
barometer
mb
20260905162545 95 112 4.0 6.0 0.00 0.00 0.00 45 1014.7
20260905161601 94 111 0.0 1.0 0.00 0.00 0.00 46 1014.7
20260905160647 94 160 4.0 7.0 0.00 0.00 0.00 47 1014.7
20260905155644 94 16 2.0 4.0 0.00 0.00 0.00 47 1014.6
20260905154744 93 156 3.0 6.0 0.00 0.00 0.00 49 1014.8
20260905153746 91 190 2.0 6.0 0.00 0.00 0.00 50 1014.6
20260905151845 91 168 1.0 3.0 0.00 0.00 0.00 53 1014.6
20260905150845 90 218 2.0 5.0 0.00 0.00 0.00 54 1014.6
20260905145845 89 218 3.0 6.0 0.00 0.00 0.00 58 1014.7
20260905144847 89 222 4.0 7.0 0.00 0.00 0.00 59 1014.6
20260905143844 87 218 0.0 2.0 0.00 0.00 0.00 62 1014.6
20260905142847 86 171 3.0 5.0 0.00 0.00 0.00 65 1014.6
20260905141845 84 225 1.0 3.0 0.00 0.00 0.00 68 1014.6
20260905140843 84 247 4.0 7.0 0.00 0.00 0.00 70 1014.7
20260905135845 82 235 0.0 1.0 0.00 0.00 0.00 73 1014.6
20260905134944 82 240 4.0 5.0 0.00 0.00 0.00 73 1014.6
20260905133945 82 232 2.0 4.0 0.00 0.00 0.00 73 1014.6
20260905133043 82 157 0.0 0.0 0.00 0.00 0.00 75 1014.6
20260905132044 80 157 0.0 2.0 0.00 0.00 0.00 79 1014.3
20260905131048 78 157 0.0 0.0 0.00 0.00 0.00 81 1014.4
20260905125103 75 157 0.0 0.0 0.00 0.00 0.00 85 1014.1
20260905124144 75 180 1.0 3.0 0.00 0.00 0.00 87 1013.9
20260905123144 74 157 3.0 5.0 0.00 0.00 0.00 88 1013.8
20260905122243 74 157 0.0 2.0 0.00 0.00 0.00 88 1013.9
20260905121245 74 157 1.0 2.0 0.00 0.00 0.00 86 1013.9
20260905120259 74 180 1.0 4.0 0.00 0.00 0.00 87 1013.8
20260905115345 74 174 2.0 5.0 0.00 0.00 0.00 87 1013.6
20260905113443 74 157 3.0 6.0 0.00 0.00 0.00 88 1013.5
20260905112500 74 180 2.0 4.0 0.00 0.00 0.00 87 1013.8
20260905111445 74 187 1.0 4.0 0.00 0.00 0.00 86 1013.9
20260905110445 74 157 0.0 2.0 0.00 0.00 0.00 87 1013.8
20260905105544 74 157 1.0 3.0 0.00 0.00 0.00 86 1013.8
20260905104546 74 157 1.0 1.0 0.00 0.00 0.00 86 1013.9
20260905103546 74 157 0.0 0.0 0.00 0.00 0.00 85 1013.8
20260905102601 75 157 0.0 0.0 0.00 0.00 0.00 86 1013.7
20260905100644 75 157 0.0 0.0 0.00 0.00 0.00 85 1013.7
20260905095645 75 157 0.0 0.0 0.00 0.00 0.00 84 1013.5
20260905094644 75 157 0.0 0.0 0.00 0.00 0.00 83 1013.7
20260905092644 75 157 0.0 0.0 0.00 0.00 0.00 83 1013.8
20260905091743 76 157 0.0 0.0 0.00 0.00 0.00 81 1013.7
20260905090744 76 157 0.0 0.0 0.00 0.00 0.00 82 1013.5
20260905085842 76 157 1.0 1.0 0.00 0.00 0.00 81 1013.6
20260905084858 76 202 0.0 1.0 0.00 0.00 0.00 81 1013.6
20260905083845 77 202 1.0 2.0 0.00 0.00 0.00 79 1013.3
20260905082902 77 191 2.0 3.0 0.00 0.00 0.00 80 1013.2
20260905081845 77 187 2.0 4.0 0.00 0.00 0.00 79 1013.3
20260905080900 77 157 2.0 5.0 0.00 0.00 0.00 79 1013.3
20260905075902 78 157 2.0 4.0 0.00 0.00 0.00 78 1013.3
20260905074944 78 171 3.0 4.0 0.00 0.00 0.00 77 1013.2
20260905071942 78 158 4.0 6.0 0.00 0.00 0.00 75 1013.5
20260905070958 79 165 3.0 5.0 0.00 0.00 0.00 75 1013.4
20260905070042 79 162 3.0 6.0 0.00 0.00 0.00 74 1013.6
20260905063158 80 169 3.0 5.0 0.00 0.00 0.00 73 1013.8
20260905062245 80 174 2.0 5.0 0.00 0.00 0.00 72 1013.8
20260905061245 80 157 2.0 4.0 0.00 0.00 0.00 73 1013.8
20260905055345 81 168 2.0 5.0 0.00 0.01 0.00 71 1013.9
20260905053444 82 158 2.0 7.0 0.00 0.07 0.00 70 1013.5
20260905052543 82 169 4.0 5.0 0.00 0.09 0.00 68 1013.5
20260905051543 83 159 4.0 7.0 0.00 0.09 0.00 68 1013.3
20260905050544 83 159 7.0 9.0 0.00 0.09 0.00 67 1013.1
20260905045638 83 160 6.0 11.0 0.00 0.09 0.09 67 1013.3
20260905043823 84 158 6.0 10.0 0.00 0.09 0.09 65 1013.1
20260905042823 84 157 7.0 11.0 0.00 0.09 0.09 63 1013.2
20260905035823 86 157 9.0 12.0 0.00 0.09 0.09 59 1013.1
20260905034839 86 166 6.0 12.0 0.00 0.09 0.09 57 1013.2
20260905032924 87 156 6.0 8.0 0.00 0.09 0.09 55 1013.2
20260905031937 87 158 7.0 10.0 0.00 0.09 0.09 55 1013.3
20260905030923 87 152 6.0 8.0 0.00 0.09 0.09 56 1013.1
20260905030021 87 156 4.0 6.0 0.00 0.09 0.09 55 1012.8
20260905025024 88 152 5.0 8.0 0.00 0.09 0.09 55 1012.8
20260905024122 88 155 6.0 9.0 0.00 0.09 0.09 54 1012.7
20260905023123 88 156 7.0 10.0 0.00 0.09 0.09 53 1012.7
20260905022139 89 151 7.0 8.0 0.00 0.09 0.09 54 1012.4
20260905015223 90 148 5.0 6.0 0.00 0.09 0.09 52 1012.1
20260905014237 90 142 6.0 8.0 0.00 0.09 0.09 50 1012.0
20260905013322 91 155 5.0 7.0 0.00 0.09 0.09 50 1011.7
20260905012323 91 157 5.0 6.0 0.00 0.09 0.09 49 1011.7
20260905011325 92 149 6.0 7.0 0.00 0.09 0.09 48 1011.5
20260905010324 92 151 7.0 9.0 0.00 0.09 0.09 47 1011.4
20260905005421 93 145 7.0 9.0 0.00 0.09 0.09 45 1011.2
20260905004423 94 137 5.0 8.0 0.00 0.09 0.09 44 1011.1
20260905003437 95 158 5.0 6.0 0.00 0.09 0.09 42 1011.0
20260905002421 96 159 5.0 7.0 0.00 0.09 0.09 41 1011.0
20260905000424 97 150 6.0 11.0 0.00 0.09 0.09 41 1010.8
20260904235423 97 124 4.0 12.0 0.00 0.09 0.09 41 1010.7
20260904234422 98 150 7.0 9.0 0.00 0.09 0.09 40 1010.7
20260904233422 98 134 3.0 5.0 0.00 0.09 0.09 39 1010.6
20260904232421 98 159 9.0 14.0 0.00 0.09 0.09 38 1010.8
20260904231423 98 131 4.0 6.0 0.00 0.09 0.09 38 1010.7
20260904230436 98 139 4.0 7.0 0.00 0.09 0.09 38 1010.5
20260904225521 98 133 8.0 14.0 0.00 0.09 0.09 38 1010.8
20260904224524 99 138 8.0 12.0 0.00 0.09 0.09 38 1010.8
20260904223621 99 151 9.0 13.0 0.00 0.09 0.09 38 1010.8
20260904222622 99 152 4.0 7.0 0.00 0.09 0.09 38 1011.0
20260904221622 99 146 5.0 9.0 0.00 0.09 0.09 37 1011.0
20260904220622 99 155 8.0 11.0 0.00 0.09 0.09 38 1011.0
20260904214636 99 156 2.0 6.0 0.00 0.09 0.09 39 1011.2
20260904213723 98 157 8.0 11.0 0.00 0.09 0.09 39 1011.2
20260904212820 98 161 9.0 13.0 0.00 0.09 0.09 40 1011.4
20260904211822 97 169 8.0 13.0 0.00 0.09 0.09 40 1011.4
20260904210822 97 159 5.0 9.0 0.00 0.09 0.09 40 1011.6
20260904205822 97 168 6.0 9.0 0.00 0.09 0.09 40 1011.8
20260904204837 97 163 10.0 14.0 0.00 0.09 0.09 40 1011.7
20260904203838 97 159 11.0 15.0 0.00 0.09 0.09 40 1012.0
20260904202822 97 160 9.0 15.0 0.00 0.09 0.09 42 1012.1
20260904201921 96 149 7.0 11.0 0.00 0.09 0.09 43 1012.2
20260904200922 96 143 6.0 11.0 0.00 0.09 0.09 44 1012.4
20260904200021 96 106 4.0 7.0 0.00 0.09 0.09 45 1012.4
20260904195020 95 145 9.0 14.0 0.00 0.09 0.09 46 1012.6
20260904194038 95 156 9.0 13.0 0.00 0.09 0.09 48 1012.8
20260904193123 95 131 6.0 11.0 0.00 0.09 0.09 48 1012.9
20260904192220 95 180 4.0 7.0 0.00 0.09 0.09 47 1013.0
20260904191223 94 168 4.0 8.0 0.00 0.09 0.09 47 1013.0
20260904190220 93 162 5.0 8.0 0.00 0.09 0.09 45 1013.1
20260904185221 93 162 8.0 11.0 0.00 0.09 0.09 46 1013.4
20260904184220 93 157 6.0 9.0 0.00 0.09 0.09 46 1013.5
20260904183236 92 169 6.0 10.0 0.00 0.09 0.09 48 1013.6
20260904182322 91 152 5.0 9.0 0.00 0.09 0.09 51 1013.8
20260904181337 91 177 6.0 8.0 0.00 0.09 0.09 54 1013.9
20260904180338 90 143 4.0 7.0 0.00 0.09 0.09 57 1013.9
20260904175338 88 216 4.0 7.0 0.00 0.09 0.09 59 1013.9
20260904174337 87 216 5.0 7.0 0.00 0.09 0.09 59 1014.3
20260904172320 86 211 7.0 11.0 0.00 0.09 0.09 60 1014.6
20260904171322 85 225 4.0 10.0 0.00 0.09 0.09 62 1014.7
20260904170323 84 173 6.0 14.0 0.00 0.09 0.09 65 1014.7
20260904165322 84 211 7.0 12.0 0.00 0.09 0.09 67 1014.8
20260904164337 83 185 2.0 5.0 0.00 0.09 0.09 67 1014.9
20260904163321 82 203 7.0 10.0 0.00 0.09 0.09 68 1014.9